User: anonymous   Login
Location: Unspecified
(0.0000°N, 0.0000°E)
Time: 23:16:31
(UTC+00:00)
Language:

FORMOSAT7-6/COSMIC2-6 - Orbit

View from above orbital plane
View from above orbital plane
View from above satellite
View from above satellite

Ground track
Ground track

The orbit is defined by the following mean orbital elements,

1 44353U          26145.62046913 +.00000000 +00000-0 +16262-3 0 00001
2 44353  23.9967 121.7535 0001101 180.0486 180.0015 14.96396110    06
Epoch (UTC): 25 May 2026 14:53:28
Eccentricity: 0.0001101
inclination: 23.9967°
perigee height: 577 km
apogee height: 579 km
right ascension of ascending node: 121.7535°
argument of perigee: 180.0486°
revolutions per day: 14.96396110
mean anomaly at epoch: 180.0015°

The dashed part of the orbit path shows where the satellite is in the earth's shadow,  

DLR